OneWeb SL0145

operational
NORAD ID: 47260 Int'l Des: 2020-100 Owner: ONEWEB Country: UK Constellation: oneweb
LEOCIRCULARPOLARONEWEB_TYPE

About OneWeb SL0145

Description loading...

Live Position

Loading 3D Globe...

Upcoming Passes

Altitude History

Altitude vs Time

uPlot chart will show altitude changes over time

Two-Line Element Set

1 47260U 20100C 25304.22863762 .00000015 00000-0 67847-5 0 9995
2 47260 87.8971 36.1214 0001933 109.7556 250.3781 13.12443948234696
Epoch: Oct 31, 2025 • Age: 13 hours

Current Status

Altitude 1225.1 km
Velocity 7.25 km/s
Sub-Earth Point 74.77°N, 114.46°W
Launch Date Dec 18, 2020
Age 4.8 years
Type internet

Technical Details

Classification Payload
Mass 148.00 kg
Dry Mass 140.00 kg
Total Mass 148.00 kg
Length 1.30 m
Diameter 1.00 m
Span 5.00 m
Shape Trapezoid+2 pan
Manufacturer ONEWUS
Bus Type ARROW
Phase Status In Orbit
Owner/State ONEWEB/UK

Large Constellations

Loading constellations...